www.pogodaiklimat.ru

Погода и климат >> Архив погоды >> Румыния >> Darabani


ПОГОДА в Darabani

  • Прогноз погоды в Darabani
  • Монитор погоды в Darabani
  • Климат города

АРХИВ ПОГОДЫ в Darabani

Время (UTC), дата Ветер
(напр.,м/с)
 
Видим.   Явления Облачность Т
(С)
Тd
(С)
f
(%)
Тe
(С)
Тes
(С)
Комфортность P
(гПа)
Po
(гПа)
Тmin
(С)
Tmax
(С)
R
(мм)
R24
(мм)
S
(см)
21 12.09 Ю 2-3
{3}
н/о н/о +19.0 +12.4 66 +21 +21 комфорт 1022.2 991.6
00 13.09 Ю 1-1
{2}
н/о н/о +17.3 +12.8 75 +18 +18 1022.2 991.4
03 13.09 Ю 3-4
{4}
н/о н/о +15.1 +13.3 89 +14 +14 1021.0 990.0
06 13.09 Ю 2 4000 м дымка 5/0
[Cs]
+15.7 +14.5 93 +16 +18 1021.0 990.0 +14.2 +21.5
09 13.09 Ю 4-6
{7}
10 км ясно +21.8 +15.0 65 +25 +32 комфорт 1020.3 990.0
12 13.09 ЮВ 4-7
{8}
10 км 8/3 600 м
[Cu med, cong Cs]
+25.5 +13.2 46 +27 +31 жарко 1018.4 988.6
15 13.09 ЮВ 2-3
{5}
10 км 10/3 600 м
[Cu med, cong Ac und Ci fib]
+24.8 +12.4 46 +27 +27 жарко 1017.3 987.4
18 13.09 Ю 2 10 км 8/0
[Ac As]
+21.7 +13.6 60 +24 +24 комфорт 1017.7 987.5 +15.7 +26.4
21 13.09 Ю 2-3
{3}
н/о н/о +20.0 +13.9 68 +23 +23 комфорт 1017.5 987.0
00 14.09 Ю 2-3
{4}
н/о н/о +18.2 +13.2 73 +19 +19 1017.6 987.0
03 14.09 В 1-2
{3}
н/о н/о +17.5 +13.3 76 +19 +19 1017.2 986.5
06 14.09 Ю 1 10 км 8/0
[Ac trans Cs]
+18.9 +13.6 71 +21 +23 комфорт 1017.6 987.0 +16.3 +21.6
09 14.09 ЮВ 1-3
{3}
10 км 6/0
[Cs]
+24.3 +14.3 54 +27 +37 жарко 1017.1 987.1
12 14.09 В 2-4
{4}
10 км 4/4 600 м
[Cu med, cong]
+25.4 +12.1 43 +27 +32 жарко 1016.2 986.4
15 14.09 ЮЗ 2-3
{3}
10 км ясно +26.1 +10.9 39 +27 +28 жарко 1015.5 985.8
18 14.09 З 2 10 км ясно +23.4 +11.4 47 +26 +26 жарко 1016.6 986.6 +18.8 +27.3
21 14.09 СЗ 4-4
{4}
н/о н/о +19.7 +13.1 66 +21 +21 комфорт 1017.1 986.7
00 15.09 СЗ 5-6
{6}
н/о н/о +16.5 +13.7 84 +16 +16 1017.3 986.6
03 15.09 СЗ 5-6
{6}
н/о н/о +14.8 +13.8 94 +13 +13 1017.1 986.2
06 15.09 СЗ 5 10 км ясно +15.4 +14.1 92 +14 +15 1017.3 986.5 +14.2 +23.2
09 15.09 З 2-4
{4}
10 км ясно +21.8 +15.7 68 +25 +35 комфорт 1017.0 986.8
12 15.09 ЮЗ 2-4
{4}
10 км 3/3 600 м
[Cu med, cong]
+27.1 +14.0 45 +29 +35 жарко 1015.3 985.6
15 15.09 З 2-4
{5}
10 км 6/4 600 м
[Cb calv Ac As]
+25.4 +14.6 51 +28 +28 жарко 1015.1 985.4
18 15.09 СЗ 3 10 км 10/5 600 м
[Sc Ac As]
+19.5 +16.9 85 +22 +22 комфорт 1018.2 987.7 +15.4 +27.8
21 15.09 СЗ 3-5
{6}
н/о н/о +17.9 +17.0 94 +18 +18 1019.8 989.1
00 16.09 СЗ 3-5
{6}
н/о н/о +16.9 +15.3 90 +17 +17 1020.9 990.1
03 16.09 СЗ 3-6
{7}
н/о н/о +15.6 +15.6 100 +15 +15 1021.7 990.7 0.6
06 16.09 СЗ 3 4000 м дымка 4/0
[Ac trans]
+15.2 +14.3 94 +14 +16 1023.4 992.4 +14.0 +19.5
09 16.09 СЗ 5-9
{10}
10 км 5/5 600 м
[Cu med, cong]
+19.5 +11.1 58 +20 +23 1023.8 993.1
12 16.09 СЗ 4-8
{8}
10 км 6/6 600 м
[Cu med, cong]
+19.9 +9.2 50 +21 +23 комфорт 1023.7 993.1
15 16.09 СЗ 5-8
{9}
10 км 3/3 600 м
[Cu med, cong]
+20.0 +7.2 43 +21 +21 комфорт 1023.6 993.0
18 16.09 СЗ 2 10 км ясно +16.3 +8.8 61 +16 +16 1025.4 994.4 +15.0 +21.4
21 16.09 З 3-4
{4}
н/о н/о +14.3 +9.1 71 +13 +13 1026.7 995.4
00 17.09 СЗ 4-5
{6}
н/о н/о +12.6 +9.5 81 +11 +11 1027.1 995.6
03 17.09 СЗ 4-5
{5}
н/о н/о +10.8 +9.4 91 +8 +8 1027.4 995.7
06 17.09 С 2 10 км ясно +11.9 +10.4 91 +11 +13 1027.8 996.2 +10.1 +16.4
09 17.09 Ю 1-3
{3}
10 км ясно +18.5 +10.0 58 +20 +31 1027.2 996.4
12 17.09 ЮЗ 2-4
{5}
10 км 4/4 600 м
[Cu med, cong]
+21.1 +7.9 43 +22 +27 комфорт 1025.5 995.0
15 17.09 Ю 1-3
{4}
10 км 6/1 600 м
[Cu med, cong Cs]
+21.8 +8.5 42 +23 +24 комфорт 1024.2 993.7
18 17.09 В 3 10 км 1/0
[Ci fib]
+19.5 +7.7 46 +21 +21 комфорт 1024.9 994.2 +11.8 +23.0
21 17.09 Ю 3-4
{4}
н/о н/о +16.1 +8.4 60 +16 +16 1025.2 994.1
00 18.09 Ю 3-3
{3}
н/о н/о +13.6 +9.2 75 +12 +12 1025.2 993.8
03 18.09 ЮВ 2-3
{3}
н/о н/о +12.8 +8.7 76 +12 +12 1025.2 993.7
06 18.09 Ю 1 10 км ясно +13.7 +9.3 75 +14 +16 1025.9 994.6 +11.8 +19.6
09 18.09 Ю 2-5
{5}
10 км ясно +19.8 +10.7 56 +22 +31 комфорт 1025.4 994.7
12 18.09 Ю 2-5
{6}
10 км ясно +24.0 +11.2 45 +25 +33 комфорт 1023.8 993.6
15 18.09 ЮВ 1-3
{4}
10 км 5/0
[Cs]
+24.5 +10.9 42 +26 +27 жарко 1022.3 992.2
18 18.09 ЮВ 3 10 км ясно +21.6 +9.7 47 +23 +23 комфорт 1023.0 992.5 +13.6 +25.2
21 18.09 Ю 3-4
{4}
н/о н/о +17.5 +9.8 61 +18 +18 1023.8 992.9
00 19.09 Ю 3-4
{4}
н/о н/о +15.4 +9.5 68 +15 +15 1023.4 992.4
03 19.09 Ю 3-5
{5}
н/о н/о +14.2 +9.7 74 +13 +13 1024.2 992.9
06 19.09 Ю 2 10 км ясно +14.1 +10.7 80 +14 +16 1024.8 993.5 +12.0 +21.6
09 19.09 Ю 3-5
{5}
10 км ясно +20.4 +12.7 61 +23 +30 комфорт 1024.4 993.8
12 19.09 Ю 3-6
{6}
10 км ясно +26.1 +13.1 45 +28 +35 жарко 1022.6 992.6
15 19.09 Ю 3-5
{7}
10 км ясно +26.2 +11.5 40 +27 +28 жарко 1021.4 991.5
18 19.09 Ю 2 10 км ясно +22.0 +11.4 51 +24 +24 комфорт 1022.0 991.6 +13.8 +27.1

 

Местоположение метеостанции Darabani (Румыния): широта 48.20 долгота 26.58 высота над уровнем моря 260 м.

В архиве по умолчанию представлена погода в Darabani за последнюю неделю. Архивные данные за месяц целиком и за предыдущие месяцы, начиная с января 2011 года, Вы можете получить, выбрав интересующий диапазон дат из раскрывающегося списка и нажав кнопку "Ввод!".


*Определитесь, кто Вы:
робот инопланетянин человек

Внимание! Время в таблицах - всемирное. Для получения местного времени необходимо прибавить поправку, которая в Darabani равна 2 ч.

Смотрите также архив погоды в соседних городах и на ближайших метеорологических станциях:

Погода в Бричанах (Молдова) (41 км)
Погода в Каменец-Подольском (Хмельницкая область, Украина) (50 км)
Погода в Botosani (Румыния) (53 км)
Погода в Черновцах (Черновицкая область, Украина) (54 км)
Погода в Stanca Stefanesti (Румыния) (63 км)
Погода в Radauti (Румыния) (65 км)
Погода в Suceava (Румыния) (68 км)
Погода в Новоднестровске (Черновицкая область, Украина) (76 км)
Погода в Новой Ушице (Хмельницкая область, Украина) (88 км)
Погода в Могилев-Подольском (Винницкая область, Украина) (93 км)

Пояснения к столбцам:

Ветер - указаны скорость ветра в м/с - средняя за 10 мин, порывы в срок и между сроками (в фигурных скобках) и направление, откуда дует ветер: С - северный, СВ - северо-восточный, В - восточный, ЮВ - юго-восточный, Ю - южный, ЮЗ - юго-западный, З - западный, СЗ - северо-западный.
Видимость - горизонтальная дальность видимости в метрах или километрах. При видимости от 1 до 10 км при отсутствии осадков обычно наблюдается дымка, при ухудшении видимости до 1 км и менее - туман. В сухую погоду видимость может ухудшаться дымом, пылью или мглою.
Явления - указаны атмосферные явления, наблюдавшиеся в срок или в последний час перед сроком; фигурными скобками обозначены явления, наблюдавшиеся между сроками (за 1-3 часа до срока); квадратными скобками обозначены град или гололедные отложения с указанием их диаметра в мм.
Облачность - указаны через наклонную черту общая и нижняя облачность в баллах и высота нижней границы облаков в метрах; квадратными скобками обозначены формы облаков: Ci - перистые, Cs - перисто-слоистые, Cc - перисто-кучевые, Ac - высококучевые, As - высокослоистые, Sc - слоисто-кучевые, Ns - слоисто-дождевые, Cu - кучевые, Cb - кучево-дождевые. Подробнее классификацию облаков см. в Атласе облаков (PDF).
T - Температура воздуха - температура, измеренная на высоте 2 м над землей.
Td - Температура точки росы - температура, при понижении до которой содержащийся в воздухе водяной пар достигнет насыщения.
f - Относительная влажность воздуха - влажноcть воздуха, измеренная на высоте 2 м над землей.
Te - Эффективная температура - температура, которую ощущает одетый по сезону человек в тени. Характеристика душности погоды. При расчете учитывается влияние влажности воздуха и скорости ветра на теплоощущения человека.
Tes - Эффективная температура на солнце - температура, которую ощущает человек, с поправкой на солнечный нагрев. Характеристика знойности погоды. Зависит от высоты солнца над горизонтом, облачности и скорости ветра. Ночью, в пасмурную погоду, а также при ветре 12 м/с и более поправка равна нулю.
P - Атмосферное давление - приведенное к уровню моря атмосферное давление.
Po - Атмосферное давление - измеренное на уровне метеостанции атмосферное давление.
Tmin - Минимальная температура - минимум температуры воздуха на высоте 2 м над землей.
Tmax - Максимальная температура - максимум температуры воздуха на высоте 2 м над землей.
R - Количество осадков - Количество выпавших осадков за период времени, мм. При наведении курсора мыши на число - период времени, за который выпало указанное количество осадков.
R24 - Количество осадков - Количество выпавших осадков за 24 часа, мм.
S - Снежный покров - Высота снежного покрова, см. При наведении курсора мыши на число - состояние снежного покрова и степень покрытия местности в баллах.